Weather Roundup
Issued by NWS

Home | Current Version | Previous Version | Graphics & Text | Print | Product List | Glossary Off
Versions: 1 2 3 4 5 6 7 8 9 10 11 12 13 14 15 16 17 18 19 20 21 22 23 24 25 26 27 28 29 30 31 32 33 34 35 36 37 38 39 40 41 42 43 44 45 46 47 48 49 50

000
NZUS93 KARX 120110
HRRWXR

CURRENT HOURLY OBSERVATIONS ACROSS
MUCH OF THE UPPER MISSISSIPPI VALLEY
NATIONAL WEATHER SERVICE LA CROSSE WI
800 PM CDT FRI JUL 11 2014


...SOUTHEAST MINNESOTA...


CITY           SKY/WX    TMP DP  RH WIND       PRES   REMARKS
ROCHESTER      CLOUDY    74  66  76 S14       30.04S
ROCHESTER/MAYO MOCLDY    75  64  70 SE10G17   30.02S
WINONA         CLOUDY    77  64  65 SW3       30.03R
AUSTIN         CLEAR     75  66  73 S8        30.02S
ALBERT LEA     PTCLDY    75  66  73 W6        30.01S
DODGE CENTER   MOCLDY    75  68  78 S13       30.02S
PRESTON        CLOUDY    74  67  78 S7        30.05R
OWATONNA       PTCLDY    77  66  69 S8        30.00R
FARIBAULT      CLOUDY    81  66  61 S6        29.99S
$$

...ELSEWHERE IN MINNESOTA...


CITY           SKY/WX    TMP DP  RH WIND       PRES   REMARKS
MINNEAPOLIS    MOCLDY    80  69  69 VRB5      29.97R
INTNL FALLS    CLEAR     76  55  48 W9        29.89R
DULUTH         MOCLDY    73  68  84 SW8       29.95S THUNDER
RED WING       CLOUDY    77  66  69 SE5       29.98S
REDWOOD FALLS  CLEAR     83  73  72 S6        29.96R
MANKATO        MOCLDY    79  68  69 S7        29.98R
WORTHINGTON    PTCLDY    77  72  83 SW6       30.02R
FAIRMONT       CLOUDY    79  66  65 S10       29.99S
$$

...SOUTHWEST WISCONSIN...


CITY           SKY/WX    TMP DP  RH WIND       PRES   REMARKS
LA CROSSE      CLOUDY    77  65  66 S9        30.03R
PRAIRIE DU CHI CLOUDY    74  64  69 E3        30.04S
BOSCOBEL       CLOUDY    76  64  66 VRB3      30.06S
LONE ROCK      CLEAR     76  65  68 SE3       30.07S
PLATTEVILLE    MOCLDY    73  64  75 SE9       30.09S
FORT MC COY    CLOUDY    74  63  68 S3        30.06R
VIROQUA        FAIR      72  64  74 S8        30.07S
WIS DELLS      PTCLDY    71  58  64 S8        30.09R
$$

...ELSEWHERE IN WISCONSIN...


CITY           SKY/WX    TMP DP  RH WIND       PRES   REMARKS
MILWAUKEE      MOCLDY    71  54  54 S6        30.12S
MADISON        MOCLDY    74  57  55 S8        30.10R
GREEN BAY      MOCLDY    75  53  46 S8        30.08S
EAU CLAIRE     CLOUDY    75  67  76 S8        30.00R
BLACK RVR FLS  CLOUDY    74  64  70 CALM      30.04S
MEDFORD        CLOUDY    69  62  77 S6        30.06R
WAUSAU         CLOUDY    72  56  57 S9        30.06R
WIS RAPIDS     CLOUDY    73  59  61 S9        30.08R
MARSHFIELD     MOCLDY    70  61  73 S8        30.06S
RICE LAKE      CLOUDY    72  65  80 S7        30.02S
$$

...NORTHEAST IOWA...


CITY           SKY/WX    TMP DP  RH WIND       PRES   REMARKS
WATERLOO       CLOUDY    75  68  78 S8        30.03R
DUBUQUE        CLOUDY    73  67  81 S6        30.08S
DECORAH          N/A    N/A N/A N/A MISG        N/A
MASON CITY     CLOUDY    74  67  78 S9        30.04S
CHARLES CITY   CLOUDY    75  68  78 S8        30.05R
OELWEIN        CLOUDY    75  75 100 S7        30.06R
$$

...ELSEWHERE IN IOWA...


CITY           SKY/WX    TMP DP  RH WIND       PRES   REMARKS
DES MOINES     CLOUDY    77  71  82 E5        30.01S
IOWA CITY      MOCLDY    76  70  82 SE6       30.05S
FORT DODGE     CLOUDY    73  68  83 CALM      30.03R
MARSHALLTOWN   CLOUDY    75  70  84 SE5       30.03R
CEDAR RAPIDS   CLOUDY    75  67  76 SE7       30.03S
$$

...NORTHERN ILLINOIS...


CITY           SKY/WX    TMP DP  RH WIND       PRES   REMARKS
CHICAGO-OHARE  MOCLDY    75  57  53 S7        30.10F
DUPAGE         CLOUDY    74  58  57 S6        30.11S
CHICAGO-MIDWAY CLOUDY    80  57  45 S8        30.11S
MOLINE         CLOUDY    78  68  71 CALM      30.06R
ROCKFORD       MOCLDY    74  61  63 E6        30.11R
STERLING       CLOUDY    73  64  73 CALM      30.09R
PEORIA         CLOUDY    77  66  68 S9        30.06S
$$

NOTE: "FAIR" INDICATES FEW OR NO CLOUDS BELOW 12,000 FEET WITH NO
SIGNIFICANT WEATHER AND/OR OBSTRUCTIONS TO VISIBILITY. WIND
SPEEDS ARE IN MILES-PER-HOUR.



USA.gov is the U.S. government's official web portal to all federal, state and local government web resources and services.